Find Kuiper-00087

NORAD ID: 64833 Int'l Des: 2025-151 Owner: KUIP Country: US Constellation: kuiper operational
LEOCIRCULAR

Live-Position

3D-Globus wird geladen...

Über Kuiper-00087

Beschreibung wird geladen...

Nächste Überflüge

Passes for default location (London). Set your location on the main map for personalized predictions.

Höhenverlauf

Loading altitude history...

Zweizeiliger Elementsatz

1 64833U 25151T 26105.28151076 .00001378 00000-0 20972-3 0 9994
2 64833 51.8993 118.7681 0000741 79.4962 280.6084 14.79933606 40990
Epoch: 15. Apr. 2026 • Age: 6 hours

Aktueller Status

Höhe 641.2 km
Geschwindigkeit 7.54 km/s
Subsatellitenpunkt -35.67°S, 61.6°W
Startdatum 16. Juli 2025
Alter 0.7 years
Typ internet

Technische Details

Klassifizierung Payload
Masse 490.00 kg
Trockenmasse 490.00 kg
Gesamtmasse 490.00 kg
Länge 1.80 m
Durchmesser 0.70 m
Spannweite 5.00 m
Form Box + 2 pan
Hersteller KUIP
Bus-Typ Kuiper
Phasenstatus In Orbit
Besitzer/Staat KUIP/US

Most Searched